DMSP 5D-2 F13 DEB, 40479

Orbit data source: Space-Track

DMSP 5D-2 F13 DEB, 40479 is space debris in SSO originally from a launch on Fri, 24 Mar 1995 UTC launched from the Air Force Western Test Range (AFWTR). Debris objects in space refer to the collection of defunct objects orbiting the Earth. Examples of debris include non-operational satellites, rocket bodies, and fragments generated from explosions, collisions, or faulty payload assembly.

Loading next visibility...
Identifier
40479, 1995-015BX
Orbit
SSO
Country
Flag of USUS
Related business
Manufacturer
Unknown
Mission
Spacecraft
Bus & Motor
Unknown
Mass
Unknown
Launch date (UTC)
1995-03-24 (30 years ago)
Launch vehicle
Unknown
Launch site
Air Force Western Test Range (AFWTR)
Object type
Payload
Rocket body
Debris
Shape & HBR
Unknown
Radar Cross Section
Small (<0.1 m²)

Expand to show TLE details & history
Last TLE update: 4 days ago

TLE from 4 days ago
0 DMSP 5D-2 F13 DEB
1 40479U 95015BX  25256.55964696  .00000815  00000-0  39121-3 0  9997
2 40479  98.7758 273.2521 0004626 108.8236 251.3444 14.21690966543760
Epoch: 2025-09-13T13:25Z
TLE epoch observation values (Epoch: 2025-09-13T13:25:53.497Z)
Latitude
0.00006°
Longitude
78.98792°
Altitude
823.621 km
Speed
7.441 km/s
True Right ascension
18h 13m 00s
True Declination
0° 00' 00"
Sunlit
Object was in daylight at epoch
Visualization orbit readout
Latitude
Unknown
Longitude
Unknown
Altitude
Unknown
Speed
Unknown
Apparent Right ascension
Unknown
Apparent Declination
Unknown
Sunlit
N/A
Visualization observer readout
Local Sidereal Time
12:13:17
Azimuth
Unknown
Elevation
Unknown
Doppler factor
Unknown
Orbital elements
Apogee altitude
820.128 km
Perigee altitude
813.471 km
Semi-major axis
7,194.936 km
Eccentricity
0.00046
Inclination
98.7758°
RAAN
273.2521°
Arg. of periapsis
108.8236°
True anomaly
251.29418°
Mean anomaly
251.3444°
Eccentric anomaly
251.31929°
Mean motion
3.55634 °/min
Orbital period
101.23 mins
BSTAR
0.00039121
Loading maneuver chart data...
Computing Atmospheric mass density...

Documentation

Showing up to 5 results
|